GW5517 Weather Reports


Display with metric or nautical units.
time (UTC)temp
F
wind
direction
speed
MPH
gust
MPH
rain 1hr
in
rain 24hr
in
rain mn
in
humidity
%
barometer
mb
20260505113039 62 95 1.0 4.0 0.00 0.00 0.00 75 1015.7
20260505111539 60 0 0.0 3.0 0.00 0.00 0.00 79 1015.6
20260505101536 57 0 0.0 2.0 0.00 0.00 0.00 82 1014.8
20260505100045 57 169 0.0 1.0 0.00 0.00 0.00 82 1014.8
20260505094544 57 0 0.0 1.0 0.00 0.00 0.00 81 1014.6
20260505093044 57 0 0.0 1.0 0.00 0.00 0.00 80 1014.5
20260505091541 58 0 0.0 1.0 0.00 0.00 0.00 80 1014.4
20260505090040 58 0 0.0 2.0 0.00 0.00 0.00 79 1014.2
20260505084536 59 0 0.0 1.0 0.00 0.00 0.00 78 1014.2
20260505083046 59 99 0.0 2.0 0.00 0.00 0.00 77 1014.1
20260505081551 60 0 0.0 2.0 0.00 0.00 0.00 77 1014.2
20260505080049 60 0 0.0 2.0 0.00 0.00 0.00 76 1014.1
20260505074543 60 0 0.0 2.0 0.00 0.00 0.00 74 1013.9
20260505073047 61 0 0.0 2.0 0.00 0.00 0.00 75 1013.9
20260505071550 61 5 0.0 4.0 0.00 0.00 0.00 73 1013.8
20260505070039 62 241 1.0 2.0 0.00 0.00 0.00 72 1013.9
20260505064544 62 0 0.0 3.0 0.00 0.00 0.00 72 1013.8
20260505063043 62 289 0.0 3.0 0.00 0.00 0.00 72 1013.7
20260505061539 63 0 0.0 3.0 0.00 0.00 0.00 71 1013.9
20260505060037 63 337 1.0 3.0 0.00 0.00 0.00 71 1013.9
20260505054553 63 80 1.0 4.0 0.00 0.00 0.00 71 1013.8
20260505053056 63 5 0.0 4.0 0.00 0.00 0.00 71 1014.1
20260505051545 63 265 0.0 9.0 0.00 0.00 0.00 71 1014.0
20260505041545 64 0 1.0 6.0 0.00 0.00 0.00 69 1014.3
20260505040045 64 136 1.0 9.0 0.00 0.00 0.00 68 1014.2
20260505034541 64 257 1.0 5.0 0.00 0.00 0.00 67 1014.1
20260505033044 65 0 1.0 6.0 0.00 0.00 0.00 67 1014.0
20260505031536 65 87 2.0 7.0 0.00 0.00 0.00 65 1013.9
20260505030045 65 101 1.0 7.0 0.00 0.00 0.00 66 1014.0
20260505024545 66 28 1.0 5.0 0.00 0.00 0.00 64 1013.9
20260505023042 66 91 1.0 9.0 0.00 0.00 0.00 64 1013.9
20260505021540 67 137 3.0 9.0 0.00 0.00 0.00 64 1013.8
20260505020037 67 58 2.0 7.0 0.00 0.00 0.00 64 1013.7
20260505014544 67 88 3.0 8.0 0.00 0.00 0.00 63 1013.8
20260505013044 68 89 2.0 9.0 0.00 0.00 0.00 64 1013.5
20260505011550 68 92 1.0 6.0 0.00 0.00 0.00 63 1013.5
20260505010045 69 113 3.0 8.0 0.00 0.00 0.00 63 1013.1
20260505004536 69 163 2.0 7.0 0.00 0.00 0.00 62 1012.8
20260505003034 70 92 2.0 8.0 0.00 0.00 0.00 62 1012.7
20260505001544 71 141 2.0 9.0 0.00 0.00 0.00 60 1012.4
20260505000044 72 87 1.0 8.0 0.00 0.00 0.00 58 1012.1
20260504234542 72 350 2.0 6.0 0.00 0.00 0.00 52 1011.8
20260504233042 73 0 0.0 1.0 0.00 0.00 0.00 52 1011.7
20260504231535 73 217 1.0 2.0 0.00 0.00 0.00 47 1011.6
20260504230046 74 0 0.0 3.0 0.00 0.00 0.00 46 1011.6
20260504224543 74 0 1.0 4.0 0.00 0.00 0.00 50 1011.6
20260504223044 75 0 1.0 10.0 0.00 0.00 0.00 43 1011.6
20260504221538 76 360 1.0 8.0 0.00 0.00 0.00 42 1011.6
20260504220036 77 262 2.0 9.0 0.00 0.00 0.00 42 1011.6
20260504214552 78 46 1.0 4.0 0.00 0.00 0.00 39 1011.7
20260504213050 77 67 1.0 9.0 0.00 0.00 0.00 44 1011.7
20260504211542 77 0 1.0 9.0 0.00 0.00 0.00 41 1011.8
20260504210040 77 72 2.0 6.0 0.00 0.00 0.00 41 1011.8
20260504204546 77 53 3.0 6.0 0.00 0.00 0.00 39 1011.7
20260504203048 78 360 2.0 9.0 0.00 0.00 0.00 41 1011.9
20260504201546 77 28 1.0 6.0 0.00 0.00 0.00 41 1012.0
20260504200049 77 339 2.0 8.0 0.00 0.00 0.00 40 1012.0
20260504194544 76 332 3.0 10.0 0.00 0.00 0.00 39 1012.2
20260504193037 76 352 3.0 11.0 0.00 0.00 0.00 42 1012.2
20260504191552 76 257 3.0 8.0 0.00 0.00 0.00 43 1012.5
20260504190052 76 142 4.0 12.0 0.00 0.00 0.00 43 1012.7
20260504184557 76 352 2.0 10.0 0.00 0.00 0.00 43 1012.8
20260504183049 75 87 3.0 9.0 0.00 0.00 0.00 44 1013.0
20260504181545 75 288 4.0 11.0 0.00 0.00 0.00 45 1013.2
20260504180037 74 50 3.0 10.0 0.00 0.00 0.00 46 1013.6
20260504174545 74 287 4.0 13.0 0.00 0.00 0.00 47 1013.6
20260504173044 74 63 3.0 10.0 0.00 0.00 0.00 44 1013.6
20260504171544 73 104 3.0 10.0 0.00 0.00 0.00 44 1013.9